Regional Weather Roundup
Issued by NWS

Home | Current Version | Previous Version | Graphics & Text | Print | Product List | Glossary On
Versions: 1 2 3 4 5 6 7 8 9 10 11 12 13 14 15 16 17 18 19 20 21 22 23 24 25 26 27 28 29 30 31 32 33 34 35 36 37 38 39 40 41 42 43 44 45 46 47 48 49 50
000
ASUS43 KFSD 231102
RWRSD

WEATHER ROUNDUP FOR SOUTH DAKOTA
NATIONAL WEATHER SERVICE SIOUX FALLS SD
600 AM CDT TUE AUG 23 2016

NOTE: "FAIR" INDICATES FEW OR NO CLOUDS BELOW 12,000 FEET WITH NO
SIGNIFICANT WEATHER AND/OR OBSTRUCTIONS TO VISIBILITY.


SDZ001>005-009-010-012>017-231200-
NORTHWEST AND NORTH CENTRAL SOUTH DAKOTA

CITY           SKY/WX    TMP DP  RH WIND       PRES   REMARKS
BUFFALO          N/A     63  38  39 NW24      29.64S
FAITH            N/A     65  57  75 MISG      29.63R
MOBRIDGE       CLOUDY    75  61  61 SE14      29.58F
$$

SDZ012>016-024>037-041>051-057-063-072>074-231200-
SOUTHWEST AND SOUTH CENTRAL SOUTH DAKOTA

CITY           SKY/WX    TMP DP  RH WIND       PRES   REMARKS
RAPID CTY ARPT CLEAR     53  46  77 N5        29.70R
PIERRE         CLEAR     71  59  65 S10       29.64S
CUSTER         CLEAR     64  27  24 W3        29.88S
ELLSWORTH AFB  CLEAR     61  46  59 N15       29.69R
PHILIP         CLEAR     73  60  63 SW8       29.63F
PINE RIDGE     CLEAR     65  59  81 S17G26    29.76S
WINNER         FAIR      73  58  59 S20       29.73F
$$

SDZ004>011-016>023-039-040-231200-
NORTHEAST SOUTH DAKOTA

CITY           SKY/WX    TMP DP  RH WIND       PRES   REMARKS
ABERDEEN       CLEAR     68  60  75 S16G25    29.68S
WATERTOWN      CLOUDY    68  59  73 S16G24    29.78S
BROOKINGS      PTCLDY    65  59  81 S14       29.83S
$$

SDZ017-020-022-023-036>040-048>070-231200-
SOUTHEAST SOUTH DAKOTA

CITY           SKY/WX    TMP DP  RH WIND       PRES   REMARKS
SIOUX FALLS    MOCLDY    68  61  78 S15       29.85F
HURON          CLOUDY    67  59  75 S16G24    29.74R
CHAMBERLAIN    CLEAR     73  59  62 S14G20    29.73S
MITCHELL       CLEAR     67  59  75 SE10      29.78S
YANKTON        CLEAR     70  57  64 S15G22    29.82F
$$

ABBREVIATIONS USED IN REMARKS
   TC - TEMPERATURE IN CELSIUS
  WCI - WIND CHILL INDEX
   HX - HEAT INDEX
  VSB - VISIBILITY




USA.gov is the U.S. government's official web portal to all federal, state and local government web resources and services.